Preview of NWS' New Version of Forecast
This preview is not operational and should not be used for support decisions.

Regional Weather Roundup (RWR)

Issued by National Weather Service (NWS)

                            
000
ASUS44 KJAN 251510
RWRMS 

MISSISSIPPI HOURLY WEATHER ROUNDUP
NATIONAL WEATHER SERVICE JACKSON MS
1000 AM CDT TUE JUN 25 2019

NOTE: "FAIR: INDICATES FEW OR NO CLOUDS BELOW 12,000 FEET WITH NO
SIGNIFICANT WEATHER AND/OR OBSTRUCTIONS TO VISIBILITY.

MSZ001>002-007>008-010>013-018>021-025>028-034>036-251600-
NORTHWEST MISSISSIPPI
  
CITY           SKY/WX    TMP DP  RH WIND       PRES   REMARKS
BATESVILLE     FAIR      81  72  74 CALM      30.07S                  
CLARKSDALE     SUNNY     84  79  84 CALM      30.07R HX  96           
CLEVELAND      FAIR      81  77  88 SW6       30.07R                  
GREENWOOD      FAIR      81  73  76 W5        30.07R                  
GREENVILLE       N/A    N/A N/A N/A MISG      30.06R                  
OLIVE BRANCH   PTSUNNY   79  77  94 VRB7      30.06S                  
OXFORD         PTSUNNY   79  68  69 VRB3      30.09S                  
TUNICA           N/A     79  72  78 S8        30.07R                  
WINONA         FAIR      80  73  79 SW3       30.08S                  
$$

MSZ003>006-009-014>017-022>024-029>033-037>039-251600-
NORTHEAST MISSISSIPPI
  
CITY           SKY/WX    TMP DP  RH WIND       PRES   REMARKS
ABERDEEN       HAZE      79  70  73 VRB5      30.09S VSB 1/2          
COLUMBUS AFB   FAIR      80  71  72 W7        30.07S                  
CORINTH        FAIR      79  72  78 CALM      30.07S                  
GOLDN TRIANGLE FAIR      81  72  74 VRB5      30.09S                  
STARKVILLE     FAIR      81  70  69 W3        30.10R                  
TUPELO         FAIR      81  70  69 W5        30.07S                  
$$

MSZ040-058-251600-
CENTRAL MISSISSIPPI
  
CITY           SKY/WX    TMP DP  RH WIND       PRES   REMARKS
JACKSON INTL   PTSUNNY   82  69  64 SW3       30.08R                  
JACKSON HAWKNS FAIR      83  72  69 SW5       30.08S                  
MADISON        FAIR      79  72  78 CALM      30.08R                  
MERIDIAN KEY   FAIR      85  69  58 W5        30.08S                  
MERIDIAN NAS   PTSUNNY   83  68  60 NW8       30.08S                  
RAYMOND        FAIR      82  75  78 CALM      30.07S                  
VICKSBURG VKS  SUNNY     82  73  74 S5        30.07S                  
$$

MSZ059>079-251600-
SOUTH MISSISSIPPI
  
CITY           SKY/WX    TMP DP  RH WIND       PRES   REMARKS
BROOKHAVEN     FAIR      79  75  89 CALM      30.10S                  
HATTIESBURG    FAIR      83  77  82 SW6       30.08R HX  92           
LAUREL         SUNNY     80  74  81 W3        30.09R                  
MCCOMB         FAIR      81  77  88 S7        30.08S                  
NATCHEZ        FAIR      78  73  84 SE3       30.07F                  
PINE BELT      FAIR      79  75  87 CALM      30.09S                  
$$

MSZ080>082-251600-
COASTAL MISSISSIPPI
  
CITY           SKY/WX    TMP DP  RH WIND       PRES   REMARKS
BAY ST LOUIS   PTSUNNY   88  79  74 S7        30.06S HAZE    HX 102   
BILOXI         PTSUNNY   88  79  74 SW10      30.07R HX 102           
PASCAGOULA     FAIR      89  77  67 VRB3      30.07R HX 101           
GULFPORT       PTSUNNY   88  77  69 S7        30.06R HX 100           
$$

LAZ007>009-015>016-023>026-251600-
NORTHEAST LOUISIANA
  
CITY           SKY/WX    TMP DP  RH WIND       PRES   REMARKS
BASTROP        FAIR      81  75  82 SW7       30.07R                  
TALLULAH/VBURG FAIR      81  74  79 S5        30.06S                  
VIDALIA        FAIR      78  73  86 E5        30.05F                  
$$